Date,TemperatureHighF,TemperatureAvgF,TemperatureLowF,DewpointHighF,DewpointAvgF,DewpointLowF,HumidityHigh,HumidityAvg,HumidityLow,PressureMaxIn,PressureMinIn,WindSpeedMaxMPH,WindSpeedAvgMPH,GustSpeedMaxMPH,PrecipitationSumIn
2013-11-1,47,38,30,-100,-100,-100,0,0,100,0.00,40.00,14,8,20,0.00
2013-11-2,64,44,24,-100,-100,-100,0,0,100,0.00,40.00,27,10,31,0.00
2013-11-3,68,49,31,-100,-100,-100,0,0,100,0.00,40.00,23,6,30,0.00
2013-11-4,42,31,22,-100,-100,-100,0,0,100,0.00,40.00,26,10,32,0.00
2013-11-5,41,28,13,-100,-100,-100,0,0,100,0.00,40.00,18,7,20,0.00
2013-11-6,53,32,12,-100,-100,-100,0,0,100,0.00,40.00,20,5,25,0.00
2013-11-7,59,42,26,-100,-100,-100,0,0,100,0.00,40.00,21,9,24,0.00
2013-11-8,68,49,32,-100,-100,-100,0,0,100,0.00,40.00,30,7,31,0.00
2013-11-9,63,46,32,-100,-100,-100,0,0,100,0.00,40.00,20,8,22,0.00
2013-11-10,72,47,27,-100,-100,-100,0,0,100,0.00,40.00,13,5,14,0.00
2013-11-11,71,42,26,-100,-100,-100,0,0,100,0.00,40.00,27,5,28,0.00
2013-11-12,59,39,24,-100,-100,-100,0,0,100,0.00,40.00,16,7,20,0.00
2013-11-13,73,49,28,-100,-100,-100,0,0,100,0.00,40.00,16,6,16,0.00
2013-11-14,64,44,30,-100,-100,-100,0,0,100,0.00,40.00,24,7,27,0.00
2013-11-15,62,46,34,-100,-100,-100,0,0,100,0.00,40.00,27,9,34,0.00
2013-11-16,60,41,24,-100,-100,-100,0,0,100,0.00,40.00,30,8,45,0.00
2013-11-17,60,37,18,-100,-100,-100,0,0,100,0.00,40.00,23,7,30,0.02
2013-11-18,67,44,26,-100,-100,-100,0,0,100,0.00,40.00,16,7,21,0.00
2013-11-19,65,45,30,-100,-100,-100,0,0,100,0.00,40.00,14,5,18,0.00
2013-11-20,62,45,31,-100,-100,-100,0,0,100,0.00,40.00,20,5,16,0.00
2013-11-21,30,14,8,-100,-100,-100,0,0,100,0.00,40.00,21,8,26,0.00
2013-11-22,38,24,13,-100,-100,-100,0,0,100,0.00,40.00,15,4,15,0.05
2013-11-23,31,24,19,-100,-100,-100,0,0,100,0.00,40.00,23,10,28,0.00
2013-11-24,39,27,18,-100,-100,-100,0,0,100,0.00,40.00,33,12,37,0.00
2013-11-25,39,30,26,-100,-100,-100,0,0,100,0.00,40.00,18,6,24,0.02
2013-11-26,48,32,24,-100,-100,-100,0,0,100,0.00,40.00,19,5,19,0.00
2013-11-27,61,41,30,-100,-100,-100,0,0,100,0.00,40.00,15,9,17,0.00
2013-11-28,48,35,24,-100,-100,-100,0,0,100,0.00,40.00,22,10,25,0.00
2013-11-29,64,45,34,-100,-100,-100,0,0,100,0.00,40.00,19,6,22,0.00
2013-11-30,62,41,26,-100,-100,-100,0,0,100,0.00,40.00,14,6,18,0.00